Time,TemperatureF,DewpointF,PressureIn,WindDirection,WindDirectionDegrees,WindSpeedMPH,WindSpeedGustMPH,Humidity,HourlyPrecipIn,Conditions,Clouds,dailyrainin,SoftwareType,DateUTC
2013-01-10 00:08:00,26.1,21.6,30.41,West,266,0.0,0.0,83,0.00,,---,0.00,VWS V14.01,2013-01-10 06:08:00,
2013-01-10 00:38:00,26.7,21.7,30.42,WSW,254,0.0,0.0,81,0.00,,---,0.00,VWS V14.01,2013-01-10 06:38:00,
2013-01-10 01:08:00,26.5,21.2,30.42,WSW,254,0.0,0.0,80,0.00,,---,0.00,VWS V14.01,2013-01-10 07:08:00,
2013-01-10 01:38:00,24.0,19.3,30.42,WSW,254,0.0,0.0,82,0.00,,---,0.00,VWS V14.01,2013-01-10 07:38:00,
2013-01-10 02:08:00,23.0,19.2,30.44,WSW,254,0.0,0.0,85,0.00,,---,0.00,VWS V14.01,2013-01-10 08:08:00,
2013-01-10 02:38:00,23.5,19.9,30.45,SE,131,0.0,0.0,86,0.00,,---,0.00,VWS V14.01,2013-01-10 08:38:00,
2013-01-10 03:08:00,22.7,18.9,30.44,SE,131,0.0,0.0,85,0.00,,---,0.00,VWS V14.01,2013-01-10 09:08:00,
2013-01-10 03:38:00,21.5,18.0,30.44,SE,131,0.0,0.0,86,0.00,,---,0.00,VWS V14.01,2013-01-10 09:38:00,
2013-01-10 04:08:00,20.5,17.2,30.43,SE,131,0.0,0.0,87,0.00,,---,0.00,VWS V14.01,2013-01-10 10:08:00,
2013-01-10 04:38:00,20.2,17.5,30.42,SE,131,0.0,0.0,89,0.00,,---,0.00,VWS V14.01,2013-01-10 10:38:00,
2013-01-10 05:08:00,19.9,17.2,30.42,SE,131,0.0,0.0,89,0.00,,---,0.00,VWS V14.01,2013-01-10 11:08:00,
2013-01-10 05:38:00,19.8,17.4,30.43,SE,131,0.0,0.0,90,0.00,,---,0.00,VWS V14.01,2013-01-10 11:38:00,
2013-01-10 06:08:00,19.2,16.5,30.42,SE,131,0.0,0.0,89,0.00,,---,0.00,VWS V14.01,2013-01-10 12:08:00,
2013-01-10 06:38:00,18.9,16.5,30.42,SE,131,0.0,0.0,90,0.00,,---,0.00,VWS V14.01,2013-01-10 12:38:00,
2013-01-10 07:08:00,19.0,16.6,30.42,SE,131,0.0,0.0,90,0.00,,---,0.00,VWS V14.01,2013-01-10 13:08:00,
2013-01-10 07:38:00,20.3,18.1,30.42,SE,131,0.0,0.0,91,0.00,,---,0.00,VWS V14.01,2013-01-10 13:38:00,
2013-01-10 08:08:00,19.9,17.7,30.43,SE,131,0.0,0.0,91,0.00,,---,0.00,VWS V14.01,2013-01-10 14:08:00,
2013-01-10 08:38:00,21.6,19.4,30.42,SE,131,0.0,0.0,91,0.00,,---,0.00,VWS V14.01,2013-01-10 14:38:00,
2013-01-10 09:08:00,23.1,20.9,30.41,SE,131,0.0,0.0,91,0.00,,---,0.00,VWS V14.01,2013-01-10 15:08:00,
2013-01-10 09:38:00,28.5,25.4,30.39,ESE,123,0.0,0.0,88,0.00,,---,0.00,VWS V14.01,2013-01-10 15:38:00,
2013-01-10 10:08:00,30.7,26.5,30.37,ESE,118,0.0,0.0,84,0.00,,---,0.00,VWS V14.01,2013-01-10 16:08:00,
2013-01-10 10:38:00,32.9,28.6,30.36,East,90,0.0,0.0,84,0.00,,---,0.00,VWS V14.01,2013-01-10 16:38:00,
2013-01-10 11:08:00,34.5,30.2,30.33,ESE,117,0.0,0.0,84,0.00,,---,0.00,VWS V14.01,2013-01-10 17:08:00,
2013-01-10 11:38:00,36.2,31.5,30.30,ESE,118,0.0,0.0,83,0.00,,---,0.00,VWS V14.01,2013-01-10 17:38:00,
2013-01-10 12:08:00,38.4,31.5,30.27,SE,127,3.0,16.0,76,0.00,,---,0.00,VWS V14.01,2013-01-10 18:08:00,
2013-01-10 12:38:00,38.6,31.0,30.24,ESE,123,5.0,14.0,74,0.00,,---,0.00,VWS V14.01,2013-01-10 18:38:00,
2013-01-10 13:08:00,39.4,31.1,30.22,SE,126,5.0,15.0,72,0.00,,---,0.00,VWS V14.01,2013-01-10 19:08:00,
2013-01-10 13:38:00,39.2,30.6,30.20,SE,125,9.0,14.0,71,0.00,,---,0.00,VWS V14.01,2013-01-10 19:38:00,
2013-01-10 14:08:00,39.1,31.2,30.19,East,81,7.0,13.0,73,0.00,,---,0.00,VWS V14.01,2013-01-10 20:08:00,
2013-01-10 14:38:00,38.7,31.1,30.18,East,95,6.0,13.0,74,0.00,,---,0.00,VWS V14.01,2013-01-10 20:38:00,
2013-01-10 15:08:00,37.9,31.4,30.17,SE,126,4.0,15.0,77,0.00,,---,0.00,VWS V14.01,2013-01-10 21:08:00,
2013-01-10 15:38:00,37.6,31.4,30.17,ENE,77,0.0,12.0,78,0.00,,---,0.00,VWS V14.01,2013-01-10 21:38:00,
2013-01-10 16:08:00,37.6,31.1,30.16,ESE,119,6.0,15.0,77,0.00,,---,0.00,VWS V14.01,2013-01-10 22:08:00,
2013-01-10 16:38:00,37.5,31.3,30.13,East,81,3.0,13.0,78,0.00,,---,0.00,VWS V14.01,2013-01-10 22:38:00,
2013-01-10 17:08:00,37.0,31.7,30.12,East,82,12.0,14.0,81,0.00,,---,0.00,VWS V14.01,2013-01-10 23:08:00,
2013-01-10 17:38:00,36.4,32.3,30.11,ESE,117,5.0,10.0,85,0.02,,---,0.02,VWS V14.01,2013-01-10 23:38:00,
2013-01-10 18:08:00,36.7,32.3,30.08,SE,134,0.0,12.0,84,0.02,,---,0.02,VWS V14.01,2013-01-11 00:08:00,
2013-01-10 18:38:00,36.7,32.6,30.06,SE,140,7.0,13.0,85,0.03,,---,0.03,VWS V14.01,2013-01-11 00:38:00,
2013-01-10 19:08:00,36.8,32.4,30.04,SSE,149,6.0,14.0,84,0.01,,---,0.03,VWS V14.01,2013-01-11 01:08:00,
2013-01-10 19:38:00,36.6,32.5,30.03,East,95,14.0,19.0,85,0.03,,---,0.05,VWS V14.01,2013-01-11 01:38:00,
2013-01-10 20:08:00,36.1,32.9,30.01,SE,132,6.0,19.0,88,0.03,,---,0.06,VWS V14.01,2013-01-11 02:08:00,
2013-01-10 20:38:00,35.2,33.1,29.98,SE,134,9.0,15.0,92,0.09,,---,0.12,VWS V14.01,2013-01-11 02:38:00,
2013-01-10 21:08:00,35.0,33.2,29.96,SE,130,6.0,13.0,93,0.12,,---,0.17,VWS V14.01,2013-01-11 03:08:00,
2013-01-10 21:38:00,35.2,33.4,29.93,SE,124,6.0,12.0,93,0.14,,---,0.20,VWS V14.01,2013-01-11 03:38:00,
2013-01-10 22:38:00,35.7,34.2,29.89,ESE,123,4.0,14.0,94,0.23,,---,0.40,VWS V14.01,2013-01-11 04:38:00,
2013-01-10 23:08:00,36.0,34.4,29.87,SE,128,0.0,10.0,94,0.31,,---,0.51,VWS V14.01,2013-01-11 05:08:00,
2013-01-10 23:38:00,36.2,34.6,29.84,SE,134,4.0,11.0,94,0.30,,---,0.57,VWS V14.01,2013-01-11 05:38:00,